PORTS® Data Listing: 8770613 Morgans Point, Barbours Cut, TX

CO-OPS RAW PORTS DATA

************************      PRELIMINARY DATA      ************************** 

     THIS RAW DATA HAS NOT BEEN SUBJECT TO THE NATIONAL OCEAN SERVICE'S        
     QUALITY CONTROL OR QUALITY ASSURANCE PROCEDURES AND DOES NOT MEET         
     THE CRITERIA AND STANDARDS OF OFFICIAL NATIONAL OCEAN SERVICE             
     DATA.  IT IS RELEASED FOR LIMITED PUBLIC USE AS PRELIMINARY DATA TO       
     BE USED ONLY WITH APPROPRIATE CAUTION.                                    

************************      PRELIMINARY DATA      ************************** 


       CD   -   Calendar date
       T    -   Time
       TZ   -   Timezone
       PW   -   Predicted water level (feet above MLLW)
       OW   -   Observed water level (feet above MLLW)
       WS   -   Wind speed (knots)
       WD   -   Wind direction (degrees true)
       WG   -   Wind gust (knots)
       AT   -   Air temperature (degrees farenheit)
       WT   -   Water temperature (degrees farenheit)
       AP   -   Air pressure (millibars)
       SA   -   Salinty (PSU - Practical Salinity Units)
       SG   -   Specific gravity
       RH   -   Relative humidity
       AG   -   Air gap (feet)
       VI   -   Visibility (nautical miles)

       ** NOTE **
       A variable that has its data fields filled with "9"s, indicates that
       data was not collected for that sample period.
       **********


STATION NAME: Morgans Point (8770613)
****************************************************************************************************
    CD       T    TZ    PW     OW    WS   WD   WG    AT    WT    AP    SA    SG     RH    AG   VI
****************************************************************************************************
2019/11/19 05:12 CST    1.53   1.46    2  294    3  56.7  59.2 1014.8 13.7  1.010 -99.9 -99.99 -9.99
2019/11/19 05:18 CST    1.53   1.46    2  308    2  56.7  59.2 1014.8 13.7  1.010 -99.9 -99.99 -9.99
2019/11/19 05:24 CST    1.53   1.45    2  324    2  56.8  59.2 1014.8 13.7  1.010 -99.9 -99.99 -9.99
2019/11/19 05:30 CST    1.52   1.45    1  315    2  56.7  59.2 1014.9 13.7  1.010 -99.9 -99.99 -9.99
2019/11/19 05:36 CST    1.52   1.47    0  332    1  56.5  59.2 1014.9 13.7  1.010 -99.9 -99.99 -9.99
2019/11/19 05:42 CST    1.51   1.45    0  333    0  56.5  59.2 1014.9 13.7  1.010 -99.9 -99.99 -9.99
2019/11/19 05:48 CST    1.51   1.51    0  333    0  56.3  59.2 1015.0 13.7  1.010 -99.9 -99.99 -9.99
2019/11/19 05:54 CST    1.50   1.42    0  333    0  56.3  59.2 1015.1 13.7  1.010 -99.9 -99.99 -9.99
2019/11/19 06:00 CST    1.49   1.44    0  333    0  56.3  59.2 1015.1 13.7  1.011 -99.9 -99.99 -9.99
2019/11/19 06:06 CST    1.49   1.41    0  333    0  56.5  59.2 1015.2 13.7  1.011 -99.9 -99.99 -9.99
2019/11/19 06:12 CST    1.48   1.41    0  333    0  56.3  59.2 1015.3 13.7  1.011 -99.9 -99.99 -9.99
2019/11/19 06:18 CST    1.47   1.41    1  333    1  56.3  59.2 1015.4 13.7  1.011 -99.9 -99.99 -9.99
2019/11/19 06:24 CST    1.46   1.40    1  333    1  55.9  59.2 1015.5 13.8  1.011 -99.9 -99.99 -9.99
2019/11/19 06:30 CST    1.45   1.39    1  128    2  55.8  59.2 1015.6 13.8  1.011 -99.9 -99.99 -9.99
2019/11/19 06:36 CST    1.45   1.40    2  127    2  55.9  59.2 1015.6 13.8  1.011 -99.9 -99.99 -9.99
2019/11/19 06:42 CST    1.44   1.31    1  117    2  55.9  59.2 1015.7 13.8  1.011 -99.9 -99.99 -9.99
2019/11/19 06:48 CST    1.43   1.38    2   90    2  55.9  59.2 1015.7 13.8  1.011 -99.9 -99.99 -9.99
2019/11/19 06:54 CST    1.42   1.39    2   91    2  55.8  59.2 1015.7 13.8  1.011 -99.9 -99.99 -9.99
2019/11/19 07:00 CST    1.40   1.36    2   94    2  55.6  59.2 1015.7 13.8  1.011 -99.9 -99.99 -9.99
2019/11/19 07:06 CST    1.39   1.37    2   80    2  55.8  59.2 1015.8 13.8  1.011 -99.9 -99.99 -9.99
2019/11/19 07:12 CST    1.38   1.33    1   84    2  55.9  59.2 1015.9 13.8  1.011 -99.9 -99.99 -9.99
2019/11/19 07:18 CST    1.37   1.34    2   75    2  56.1  59.2 1016.1 13.8  1.011 -99.9 -99.99 -9.99
2019/11/19 07:24 CST    1.36   1.32    2   90    2  56.1  59.2 1016.2 13.8  1.011 -99.9 -99.99 -9.99
2019/11/19 07:30 CST    1.35   1.34    2   73    2  56.3  59.2 1016.2 13.8  1.011 -99.9 -99.99 -9.99
2019/11/19 07:36 CST    1.34   1.20    2   67    2  56.5  59.2 1016.3 13.8  1.011 -99.9 -99.99 -9.99
2019/11/19 07:42 CST    1.33   1.33    2   67    2  56.7  59.2 1016.3 13.9  1.011 -99.9 -99.99 -9.99
2019/11/19 07:48 CST    1.32   1.25    2   57    2  56.7  59.2 1016.4 13.9  1.011 -99.9 -99.99 -9.99
2019/11/19 07:54 CST    1.31   1.24    1   53    2  56.8  59.2 1016.5 13.9  1.011 -99.9 -99.99 -9.99
2019/11/19 08:00 CST    1.30   1.23    0   53    1  58.3  59.2 1016.5 13.9  1.011 -99.9 -99.99 -9.99
2019/11/19 08:06 CST    1.29   1.27    0   53    0  58.1  59.2 1016.5 13.9  1.011 -99.9 -99.99 -9.99
2019/11/19 08:12 CST    1.28   1.19    0   53    0  57.6  59.2 1016.6 13.9  1.011 -99.9 -99.99 -9.99
2019/11/19 08:18 CST    1.27   1.21    0   53    0  58.3  59.2 1016.6 13.9  1.011 -99.9 -99.99 -9.99
2019/11/19 08:24 CST    1.27   1.19    0   53    0  58.6  59.2 1016.6 14.0  1.011 -99.9 -99.99 -9.99
2019/11/19 08:30 CST    1.26   1.18    0   53    0  59.9  59.2 1016.7 13.9  1.011 -99.9 -99.99 -9.99
2019/11/19 08:36 CST    1.25   1.17    0   53    0  59.9  59.2 1016.7 14.0  1.011 -99.9 -99.99 -9.99
2019/11/19 08:42 CST    1.24   1.17    0   53    1  59.2  59.2 1016.7 14.0  1.011 -99.9 -99.99 -9.99
2019/11/19 08:48 CST    1.24   1.25    1   53    2  59.0  59.2 1016.7 14.0  1.011 -99.9 -99.99 -9.99
2019/11/19 08:54 CST    1.23   0.94    0   53    2  60.1  59.2 1016.8 13.9  1.011 -99.9 -99.99 -9.99
2019/11/19 09:00 CST    1.22   1.06    0   53    0  61.5  59.2 1016.8 13.9  1.011 -99.9 -99.99 -9.99
2019/11/19 09:06 CST    1.22   1.01    0   53    0  62.2  59.2 1016.9 13.9  1.011 -99.9 -99.99 -9.99
2019/11/19 09:12 CST    1.21   1.14    0   53    1  61.3  59.2 1016.9 13.9  1.011 -99.9 -99.99 -9.99
2019/11/19 09:18 CST    1.21   1.16    0   53    0  61.2  59.2 1017.0 13.9  1.011 -99.9 -99.99 -9.99
2019/11/19 09:24 CST    1.20   1.03    0   53    0  63.0  59.2 1017.0 13.9  1.011 -99.9 -99.99 -9.99
2019/11/19 09:30 CST    1.19   1.02    0  125    1  63.1  59.2 1017.0 13.9  1.011 -99.9 -99.99 -9.99
2019/11/19 09:36 CST    1.19   1.04    1  134    3  63.5  59.2 1017.1 13.9  1.011 -99.9 -99.99 -9.99
2019/11/19 09:42 CST    1.18   1.04    1  143    2  64.0  59.4 1017.1 13.9  1.011 -99.9 -99.99 -9.99
2019/11/19 09:48 CST    1.17   1.04    2  124    3  64.0  59.4 1017.1 13.9  1.011 -99.9 -99.99 -9.99
2019/11/19 09:54 CST    1.17   1.06    2  126    3  64.2  59.4 1017.1 13.9  1.011 -99.9 -99.99 -9.99
2019/11/19 10:00 CST    1.16   1.08    2  145    3  64.6  59.4 1017.2 13.9  1.011 -99.9 -99.99 -9.99
2019/11/19 10:06 CST    1.15   1.14    3  170    4  64.2  59.4 1017.2 13.9  1.011 -99.9 -99.99 -9.99
2019/11/19 10:12 CST    1.15   1.14    2  135    3  64.8  59.4 1017.2 13.9  1.011 -99.9 -99.99 -9.99
2019/11/19 10:18 CST    1.14   0.80    3  129    3  65.1  59.4 1017.1 13.9  1.011 -99.9 -99.99 -9.99
2019/11/19 10:24 CST    1.13   1.06    3  151    4  65.5  59.5 1017.0 13.9  1.011 -99.9 -99.99 -9.99
2019/11/19 10:30 CST    1.12   0.99    3  154    4  65.3  59.5 1016.9 13.9  1.011 -99.9 -99.99 -9.99
2019/11/19 10:36 CST    1.12   1.07    3  158    4  65.5  59.7 1016.9 13.9  1.011 -99.9 -99.99 -9.99
2019/11/19 10:42 CST    1.11   1.09    3  167    4  65.7  59.7 1016.9 13.9  1.011 -99.9 -99.99 -9.99
2019/11/19 10:48 CST    1.10   0.98    4  169    4  65.7  59.7 1016.9 13.9  1.011 -99.9 -99.99 -9.99
2019/11/19 10:54 CST    1.09   0.92    4  168    5  65.7  59.7 1016.8 13.9  1.011 -99.9 -99.99 -9.99
2019/11/19 11:00 CST    1.08   1.05    4  163    5  66.2  59.7 1016.8 13.9  1.011 -99.9 -99.99 -9.99
2019/11/19 11:06 CST    1.07   1.00    5  155    6  66.2  59.7 1016.7 13.9  1.011 -99.9 -99.99 -9.99
2019/11/19 11:12 CST    1.06   1.07    5  155    6  66.2  59.9 1016.6 13.9  1.011 -99.9 -99.99 -9.99
2019/11/19 11:18 CST    1.06   1.00    5  161    6  66.6  59.9 1016.6 13.9  1.011 -99.9 -99.99 -9.99
2019/11/19 11:24 CST    1.05   0.98    5  153    7  67.1  59.9 1016.5 13.9  1.011 -99.9 -99.99 -9.99
2019/11/19 11:30 CST    1.04   0.94    5  157    6  67.8  59.9 1016.4 13.9  1.011 -99.9 -99.99 -9.99
2019/11/19 11:36 CST    1.03   1.01    5  157    6  67.6  60.1 1016.3 13.9  1.011 -99.9 -99.99 -9.99
2019/11/19 11:42 CST    1.02   0.96    6  159    6  67.6  60.1 1016.3 13.8  1.011 -99.9 -99.99 -9.99
2019/11/19 11:48 CST    1.01   0.99    6  160    7  68.0  60.1 1016.3 13.9  1.011 -99.9 -99.99 -9.99
2019/11/19 11:54 CST    1.00   0.98    6  158    8  67.8  60.1 1016.2 13.9  1.011 -99.9 -99.99 -9.99
2019/11/19 12:00 CST    0.99   0.90    5  144    7  67.5  60.1 1016.1 13.9  1.011 -99.9 -99.99 -9.99
2019/11/19 12:06 CST    0.98   0.89    5  143    7  68.4  60.1 1015.9 13.9  1.011 -99.9 -99.99 -9.99
2019/11/19 12:12 CST    0.97   0.89    5  151    7  68.4  60.1 1015.8 13.9  1.011 -99.9 -99.99 -9.99
2019/11/19 12:18 CST    0.96   0.88    5  139    7  68.5  60.1 1015.8 13.9  1.011 -99.9 -99.99 -9.99
2019/11/19 12:24 CST    0.95   0.89    5  142    7  68.4  60.3 1015.7 13.8  1.011 -99.9 -99.99 -9.99
2019/11/19 12:30 CST    0.94   0.85    4  143    6  69.3  60.3 1015.6 13.8  1.011 -99.9 -99.99 -9.99
2019/11/19 12:36 CST    0.93   0.84    4  155    6  69.1  60.3 1015.5 13.8  1.011 -99.9 -99.99 -9.99
2019/11/19 12:42 CST    0.92   0.79    4  154    6  68.9  60.3 1015.5 13.8  1.011 -99.9 -99.99 -9.99
2019/11/19 12:48 CST    0.91   0.79    5  152    6  68.4  60.3 1015.4 13.8  1.011 -99.9 -99.99 -9.99
2019/11/19 12:54 CST    0.89   0.81    5  147    7  68.7  60.3 1015.4 13.9  1.011 -99.9 -99.99 -9.99
2019/11/19 13:00 CST    0.88   0.79    4  156    7  68.5  60.4 1015.3 13.8  1.010 -99.9 -99.99 -9.99
2019/11/19 13:06 CST    0.87   0.82    6  162    8  68.2  60.4 1015.3 13.8  1.010 -99.9 -99.99 -9.99
2019/11/19 13:12 CST    0.86   0.75    5  168    7  68.5  60.4 1015.3 13.8  1.010 -99.9 -99.99 -9.99
2019/11/19 13:18 CST    0.85   0.71    5  166    7  68.9  60.6 1015.3 13.7  1.010 -99.9 -99.99 -9.99
2019/11/19 13:24 CST    0.83   0.68    6  163    8  68.2  60.6 1015.3 13.7  1.010 -99.9 -99.99 -9.99
2019/11/19 13:30 CST    0.82   0.75    7  157    8  68.9  60.6 1015.2 13.7  1.010 -99.9 -99.99 -9.99
2019/11/19 13:36 CST    0.81   0.71    6  154    9  68.9  60.6 1015.1 13.7  1.010 -99.9 -99.99 -9.99
2019/11/19 13:42 CST    0.79   0.65    7  161    8  68.9  60.6 1015.1 13.7  1.010 -99.9 -99.99 -9.99
2019/11/19 13:48 CST    0.78   0.62    7  160    8  69.4  60.8 1015.2 13.7  1.010 -99.9 -99.99 -9.99
2019/11/19 13:54 CST    0.77   0.61    6  152    8  70.5  61.0 1015.1 13.7  1.010 -99.9 -99.99 -9.99
2019/11/19 14:00 CST    0.75   0.63    5  153    8  70.7  61.0 1015.1 13.7  1.010 -99.9 -99.99 -9.99
2019/11/19 14:06 CST    0.74   0.64    3  150    7  70.5  61.2 1015.1 13.7  1.010 -99.9 -99.99 -9.99
2019/11/19 14:12 CST    0.73   0.62    5  157    8  70.0  61.2 1015.2 13.7  1.010 -99.9 -99.99 -9.99
2019/11/19 14:18 CST    0.71   0.61    6  155    9  69.6  61.3 1015.2 13.6  1.010 -99.9 -99.99 -9.99
2019/11/19 14:24 CST    0.70   0.62    5  151    9  70.3  61.3 1015.2 13.6  1.010 -99.9 -99.99 -9.99
2019/11/19 14:30 CST    0.69   0.54    5  153    8  70.9  61.3 1015.2 13.6  1.010 -99.9 -99.99 -9.99
2019/11/19 14:36 CST    0.67   0.53    6  145    8  70.5  61.2 1015.1 13.6  1.010 -99.9 -99.99 -9.99
2019/11/19 14:42 CST    0.66   0.38    7  132    8  69.6  61.2 1015.1 13.6  1.010 -99.9 -99.99 -9.99
2019/11/19 14:48 CST    0.64   0.49    9  131    9  68.9  61.2 1015.2 13.6  1.010 -99.9 -99.99 -9.99
2019/11/19 14:54 CST    0.63   0.49    8  137   10  69.8  61.2 1015.2 13.6  1.010 -99.9 -99.99 -9.99
2019/11/19 15:00 CST    0.61   0.58    8  135   10  69.6  61.0 1015.1 13.6  1.010 -99.9 -99.99 -9.99
2019/11/19 15:06 CST    0.60   0.56    8  132   10  69.1  61.0 1015.1 13.5  1.010 -99.9 -99.99 -9.99
2019/11/19 15:12 CST    0.58   0.51    7  132    9  68.7  60.8 1015.1 13.5  1.010 -99.9 -99.99 -9.99
2019/11/19 15:18 CST    0.57   0.40    8  131    9  68.5  61.0 1015.1 13.5  1.010 -99.9 -99.99 -9.99
2019/11/19 15:24 CST    0.55   0.44    8  132    9  68.2  61.0 1015.1 13.4  1.010 -99.9 -99.99 -9.99
2019/11/19 15:30 CST    0.54   0.46    9  135   10  67.8  61.0 1015.1 13.4  1.010 -99.9 -99.99 -9.99
2019/11/19 15:36 CST    0.52   0.37    8  134   11  68.0  61.0 1015.1 13.4  1.010 -99.9 -99.99 -9.99
2019/11/19 15:42 CST    0.50   0.51    7  134    9  68.0  61.0 1015.2 13.4  1.010 -99.9 -99.99 -9.99
2019/11/19 15:48 CST    0.49   0.42    8  132    9  68.2  61.0 1015.1 13.4  1.010 -99.9 -99.99 -9.99
2019/11/19 15:54 CST    0.47   0.43    7  134    8  68.2  61.0 1015.1 13.4  1.010 -99.9 -99.99 -9.99
2019/11/19 16:00 CST    0.45   0.40    8  130    9  68.0  61.0 1015.0 13.4  1.010 -99.9 -99.99 -9.99
2019/11/19 16:06 CST    0.44   0.45    8  131   10  68.0  61.0 1015.1 13.4  1.010 -99.9 -99.99 -9.99
2019/11/19 16:12 CST    0.42   0.43    7  132    9  67.5  61.0 1015.1 13.4  1.010 -99.9 -99.99 -9.99
2019/11/19 16:18 CST    0.41   0.22    8  131    9  67.3  61.0 1015.1 13.4  1.010 -99.9 -99.99 -9.99
2019/11/19 16:24 CST    0.39   0.40    7  130    9  66.7  61.0 1015.1 13.3  1.010 -99.9 -99.99 -9.99
2019/11/19 16:30 CST    0.37   0.22    7  133    9  66.6  61.0 1015.1 13.2  1.010 -99.9 -99.99 -9.99
2019/11/19 16:36 CST    0.36   0.25    7  134    9  66.6  60.8 1015.1 13.2  1.010 -99.9 -99.99 -9.99
2019/11/19 16:42 CST    0.34   0.34    7  136   10  66.6  60.6 1015.2 13.3  1.010 -99.9 -99.99 -9.99
2019/11/19 16:48 CST    0.33   0.31    7  139    9  66.4  60.6 1015.3 13.2  1.010 -99.9 -99.99 -9.99
2019/11/19 16:54 CST    0.31   0.21    8  140    9  66.0  60.6 1015.3 13.2  1.010 -99.9 -99.99 -9.99
2019/11/19 17:00 CST    0.30   0.26    8  142    9  65.8  60.6 1015.4 13.2  1.010 -99.9 -99.99 -9.99
2019/11/19 17:06 CST    0.28   0.26    8  140   10  65.5  60.6 1015.3 13.2  1.010 -99.9 -99.99 -9.99
2019/11/19 17:12 CST    0.27   0.14   10  128   11  64.9  60.6 1015.2 13.2  1.010 -99.9 -99.99 -9.99
2019/11/19 17:18 CST    0.26   0.20    9  127   11  64.6  60.6 1015.2 13.2  1.010 -99.9 -99.99 -9.99
2019/11/19 17:24 CST    0.24   0.16    8  131   10  64.4  60.4 1015.3 13.2  1.010 -99.9 -99.99 -9.99
2019/11/19 17:30 CST    0.23   0.10    8  138   10  64.0  60.4 1015.3 13.2  1.010 -99.9 -99.99 -9.99
2019/11/19 17:36 CST    0.22   0.06    7  133    9  63.5  60.4 1015.3 13.2  1.010 -99.9 -99.99 -9.99
2019/11/19 17:42 CST    0.21   0.07    6  135    8  63.5  60.4 1015.4 13.1  1.010 -99.9 -99.99 -9.99
2019/11/19 17:48 CST    0.20   0.06    7  131    8  63.1  60.4 1015.3 13.1  1.010 -99.9 -99.99 -9.99
2019/11/19 17:54 CST    0.19   0.11    8  136    9  63.1  60.4 1015.4 13.1  1.010 -99.9 -99.99 -9.99
2019/11/19 18:00 CST    0.18   0.09    7  140   10  63.0  60.4 1015.4 13.0  1.010 -99.9 -99.99 -9.99
2019/11/19 18:06 CST    0.16   0.03    8  140    9  62.8  60.4 1015.4 13.0  1.010 -99.9 -99.99 -9.99
2019/11/19 18:12 CST    0.15   0.06    6  140    9  62.4  60.4 1015.4 13.0  1.010 -99.9 -99.99 -9.99
2019/11/19 18:18 CST    0.15   0.05    6  146    8  62.2  60.4 1015.4 13.0  1.010 -99.9 -99.99 -9.99
2019/11/19 18:24 CST    0.14   0.11    4  149    6  62.2  60.4 1015.6 13.0  1.010 -99.9 -99.99 -9.99
2019/11/19 18:30 CST    0.13   0.01    5  143    6  62.1  60.4 1015.5 12.9  1.010 -99.9 -99.99 -9.99
2019/11/19 18:36 CST    0.12   0.07    5  143    6  62.4  60.4 1015.6 12.9  1.010 -99.9 -99.99 -9.99
2019/11/19 18:42 CST    0.11   0.03    4  154    6  62.4  60.4 1015.6 13.0  1.010 -99.9 -99.99 -9.99
2019/11/19 18:48 CST    0.10   0.08    4  159    5  62.4  60.3 1015.8 13.2  1.010 -99.9 -99.99 -9.99
2019/11/19 18:54 CST    0.09   0.03    4  158    6  62.2  60.3 1015.8 13.2  1.010 -99.9 -99.99 -9.99
2019/11/19 19:00 CST    0.09   0.01    4  151    6  62.1  60.3 1015.8 13.2  1.010 -99.9 -99.99 -9.99
2019/11/19 19:06 CST    0.08   0.02    4  159    5  62.1  60.3 1015.9 13.2  1.010 -99.9 -99.99 -9.99
2019/11/19 19:12 CST    0.07   0.05    3  165    6  61.9  60.3 1016.1 13.2  1.010 -99.9 -99.99 -9.99
2019/11/19 19:18 CST    0.07   0.03    3  164    4  61.7  60.3 1016.0 13.2  1.010 -99.9 -99.99 -9.99
2019/11/19 19:24 CST    0.06   0.05    3  165    4  61.7  60.1 1016.1 13.2  1.010 -99.9 -99.99 -9.99
2019/11/19 19:30 CST    0.06   0.02    3  163    4  61.5  60.3 1016.1 13.2  1.010 -99.9 -99.99 -9.99
2019/11/19 19:36 CST    0.05  -0.01    3  144    4  61.5  60.3 1016.2 13.1  1.010 -99.9 -99.99 -9.99
2019/11/19 19:42 CST    0.05   0.08    3  139    4  61.3  60.3 1016.3 13.1  1.010 -99.9 -99.99 -9.99
2019/11/19 19:48 CST    0.05   0.07    4  130    5  61.5  60.3 1016.3 13.1  1.010 -99.9 -99.99 -9.99
2019/11/19 19:54 CST    0.05   0.05    4  134    5  61.5  60.3 1016.2 13.1  1.010 -99.9 -99.99 -9.99
2019/11/19 20:00 CST    0.05   0.08    4  135    5  61.3  60.3 1016.3 13.0  1.010 -99.9 -99.99 -9.99
2019/11/19 20:06 CST    0.05   0.08    4  137    6  61.5  60.3 1016.3 13.0  1.010 -99.9 -99.99 -9.99
2019/11/19 20:12 CST    0.05   0.10    5  134    6  61.7  60.1 1016.3 13.1  1.010 -99.9 -99.99 -9.99
2019/11/19 20:18 CST    0.05   0.16    5  132    6  61.7  60.1 1016.3 13.1  1.010 -99.9 -99.99 -9.99
2019/11/19 20:24 CST    0.06   0.12    6  128    8  61.9  60.1 1016.3 13.1  1.010 -99.9 -99.99 -9.99
2019/11/19 20:30 CST    0.06   0.16    8  128   10  62.1  60.3 1016.3 13.0  1.010 -99.9 -99.99 -9.99
2019/11/19 20:36 CST    0.07   0.15    7  130    9  62.1  60.3 1016.3 13.0  1.010 -99.9 -99.99 -9.99
2019/11/19 20:42 CST    0.08   0.19    8  129    9  62.1  60.3 1016.2 13.0  1.010 -99.9 -99.99 -9.99
2019/11/19 20:48 CST    0.09   0.27    7  124    9  62.1  60.3 1016.3 13.0  1.010 -99.9 -99.99 -9.99
2019/11/19 20:54 CST    0.10   0.05    7  125   10  62.2  60.3 1016.3 13.0  1.010 -99.9 -99.99 -9.99
2019/11/19 21:00 CST    0.11   0.19    8  123   10  62.4  60.3 1016.3 13.0  1.010 -99.9 -99.99 -9.99
2019/11/19 21:06 CST    0.12   0.27    8  131    9  62.1  60.3 1016.3 13.0  1.010 -99.9 -99.99 -9.99
2019/11/19 21:12 CST    0.14   0.28    8  132    9  62.1  60.1 1016.4 13.1  1.010 -99.9 -99.99 -9.99
2019/11/19 21:18 CST    0.15   0.33    8  134    9  62.2  60.1 1016.4 13.1  1.010 -99.9 -99.99 -9.99
2019/11/19 21:24 CST    0.17   0.34    8  133   10  62.2  60.1 1016.4 13.1  1.010 -99.9 -99.99 -9.99
2019/11/19 21:30 CST    0.18   0.36    8  132   11  62.4  60.1 1016.4 13.1  1.010 -99.9 -99.99 -9.99
2019/11/19 21:36 CST    0.20   0.40    7  133    9  62.2  60.1 1016.4 13.1  1.010 -99.9 -99.99 -9.99
2019/11/19 21:42 CST    0.22   0.41    8  132    9  62.2  60.1 1016.3 13.1  1.010 -99.9 -99.99 -9.99
2019/11/19 21:48 CST    0.24   0.40    7  132   10  62.1  60.1 1016.3 13.1  1.010 -99.9 -99.99 -9.99
2019/11/19 21:54 CST    0.26   0.46    8  132    9  62.1  60.1 1016.2 13.1  1.010 -99.9 -99.99 -9.99
2019/11/19 22:00 CST    0.28   0.28    8  132   10  62.2  60.1 1016.2 13.2  1.010 -99.9 -99.99 -9.99
2019/11/19 22:06 CST    0.30   0.44    8  131   11  62.4  60.1 1016.2 13.4  1.010 -99.9 -99.99 -9.99
2019/11/19 22:12 CST    0.32   0.49    8  132   10  62.1  60.1 1016.3 13.4  1.010 -99.9 -99.99 -9.99
2019/11/19 22:18 CST    0.34   0.57    7  131    9  62.1  60.1 1016.4 13.4  1.010 -99.9 -99.99 -9.99
2019/11/19 22:24 CST    0.36   0.57    7  134    8  61.9  60.1 1016.4 13.5  1.010 -99.9 -99.99 -9.99
2019/11/19 22:30 CST    0.38   0.57    7  135    8  62.1  60.1 1016.4 13.5  1.010 -99.9 -99.99 -9.99
2019/11/19 22:36 CST    0.40   0.63    7  132    9  61.7  60.1 1016.4 13.5  1.010 -99.9 -99.99 -9.99
2019/11/19 22:42 CST    0.42   0.65    8  127    9  61.9  60.1 1016.4 13.4  1.010 -99.9 -99.99 -9.99
2019/11/19 22:48 CST    0.45   0.65    8  131   10  61.9  60.1 1016.4 13.4  1.010 -99.9 -99.99 -9.99
2019/11/19 22:54 CST    0.47   0.69    7  140    9  61.7  60.1 1016.3 13.5  1.010 -99.9 -99.99 -9.99
2019/11/19 23:00 CST    0.49   0.69    6  141    8  61.5  60.1 1016.3 13.5  1.010 -99.9 -99.99 -9.99
2019/11/19 23:06 CST    0.51 -99.99 -999 -999 -999 -99.9 -99.9 -999.9 -9.9 -9.999 -99.9 -99.99 -9.99
2019/11/19 23:12 CST    0.54 -99.99 -999 -999 -999 -99.9 -99.9 -999.9 -9.9 -9.999 -99.9 -99.99 -9.99
2019/11/19 23:18 CST    0.56 -99.99 -999 -999 -999 -99.9 -99.9 -999.9 -9.9 -9.999 -99.9 -99.99 -9.99
2019/11/19 23:24 CST    0.58 -99.99 -999 -999 -999 -99.9 -99.9 -999.9 -9.9 -9.999 -99.9 -99.99 -9.99
2019/11/19 23:30 CST    0.61 -99.99 -999 -999 -999 -99.9 -99.9 -999.9 -9.9 -9.999 -99.9 -99.99 -9.99
2019/11/19 23:36 CST    0.63 -99.99 -999 -999 -999 -99.9 -99.9 -999.9 -9.9 -9.999 -99.9 -99.99 -9.99
2019/11/19 23:42 CST    0.66 -99.99 -999 -999 -999 -99.9 -99.9 -999.9 -9.9 -9.999 -99.9 -99.99 -9.99
2019/11/19 23:48 CST    0.68 -99.99 -999 -999 -999 -99.9 -99.9 -999.9 -9.9 -9.999 -99.9 -99.99 -9.99
2019/11/19 23:54 CST    0.71 -99.99 -999 -999 -999 -99.9 -99.9 -999.9 -9.9 -9.999 -99.9 -99.99 -9.99
2019/11/20 00:00 CST    0.73 -99.99 -999 -999 -999 -99.9 -99.9 -999.9 -9.9 -9.999 -99.9 -99.99 -9.99
2019/11/20 00:06 CST    0.75 -99.99 -999 -999 -999 -99.9 -99.9 -999.9 -9.9 -9.999 -99.9 -99.99 -9.99
2019/11/20 00:12 CST    0.78 -99.99 -999 -999 -999 -99.9 -99.9 -999.9 -9.9 -9.999 -99.9 -99.99 -9.99
2019/11/20 00:18 CST    0.80 -99.99 -999 -999 -999 -99.9 -99.9 -999.9 -9.9 -9.999 -99.9 -99.99 -9.99
2019/11/20 00:24 CST    0.83 -99.99 -999 -999 -999 -99.9 -99.9 -999.9 -9.9 -9.999 -99.9 -99.99 -9.99
2019/11/20 00:30 CST    0.85 -99.99 -999 -999 -999 -99.9 -99.9 -999.9 -9.9 -9.999 -99.9 -99.99 -9.99
2019/11/20 00:36 CST    0.88 -99.99 -999 -999 -999 -99.9 -99.9 -999.9 -9.9 -9.999 -99.9 -99.99 -9.99
2019/11/20 00:42 CST    0.90 -99.99 -999 -999 -999 -99.9 -99.9 -999.9 -9.9 -9.999 -99.9 -99.99 -9.99
2019/11/20 00:48 CST    0.93 -99.99 -999 -999 -999 -99.9 -99.9 -999.9 -9.9 -9.999 -99.9 -99.99 -9.99
2019/11/20 00:54 CST    0.95 -99.99 -999 -999 -999 -99.9 -99.9 -999.9 -9.9 -9.999 -99.9 -99.99 -9.99
2019/11/20 01:00 CST    0.97 -99.99 -999 -999 -999 -99.9 -99.9 -999.9 -9.9 -9.999 -99.9 -99.99 -9.99
2019/11/20 01:06 CST    1.00 -99.99 -999 -999 -999 -99.9 -99.9 -999.9 -9.9 -9.999 -99.9 -99.99 -9.99
2019/11/20 01:12 CST    1.02 -99.99 -999 -999 -999 -99.9 -99.9 -999.9 -9.9 -9.999 -99.9 -99.99 -9.99
2019/11/20 01:18 CST    1.04 -99.99 -999 -999 -999 -99.9 -99.9 -999.9 -9.9 -9.999 -99.9 -99.99 -9.99
2019/11/20 01:24 CST    1.07 -99.99 -999 -999 -999 -99.9 -99.9 -999.9 -9.9 -9.999 -99.9 -99.99 -9.99
2019/11/20 01:30 CST    1.09 -99.99 -999 -999 -999 -99.9 -99.9 -999.9 -9.9 -9.999 -99.9 -99.99 -9.99
2019/11/20 01:36 CST    1.11 -99.99 -999 -999 -999 -99.9 -99.9 -999.9 -9.9 -9.999 -99.9 -99.99 -9.99
2019/11/20 01:42 CST    1.13 -99.99 -999 -999 -999 -99.9 -99.9 -999.9 -9.9 -9.999 -99.9 -99.99 -9.99
2019/11/20 01:48 CST    1.15 -99.99 -999 -999 -999 -99.9 -99.9 -999.9 -9.9 -9.999 -99.9 -99.99 -9.99
2019/11/20 01:54 CST    1.17 -99.99 -999 -999 -999 -99.9 -99.9 -999.9 -9.9 -9.999 -99.9 -99.99 -9.99
2019/11/20 02:00 CST    1.19 -99.99 -999 -999 -999 -99.9 -99.9 -999.9 -9.9 -9.999 -99.9 -99.99 -9.99
2019/11/20 02:06 CST    1.21 -99.99 -999 -999 -999 -99.9 -99.9 -999.9 -9.9 -9.999 -99.9 -99.99 -9.99
2019/11/20 02:12 CST    1.22 -99.99 -999 -999 -999 -99.9 -99.9 -999.9 -9.9 -9.999 -99.9 -99.99 -9.99
2019/11/20 02:18 CST    1.24 -99.99 -999 -999 -999 -99.9 -99.9 -999.9 -9.9 -9.999 -99.9 -99.99 -9.99
2019/11/20 02:24 CST    1.26 -99.99 -999 -999 -999 -99.9 -99.9 -999.9 -9.9 -9.999 -99.9 -99.99 -9.99
2019/11/20 02:30 CST    1.27 -99.99 -999 -999 -999 -99.9 -99.9 -999.9 -9.9 -9.999 -99.9 -99.99 -9.99
2019/11/20 02:36 CST    1.29 -99.99 -999 -999 -999 -99.9 -99.9 -999.9 -9.9 -9.999 -99.9 -99.99 -9.99
2019/11/20 02:42 CST    1.30 -99.99 -999 -999 -999 -99.9 -99.9 -999.9 -9.9 -9.999 -99.9 -99.99 -9.99
2019/11/20 02:48 CST    1.32 -99.99 -999 -999 -999 -99.9 -99.9 -999.9 -9.9 -9.999 -99.9 -99.99 -9.99
2019/11/20 02:54 CST    1.33 -99.99 -999 -999 -999 -99.9 -99.9 -999.9 -9.9 -9.999 -99.9 -99.99 -9.99
2019/11/20 03:00 CST    1.35 -99.99 -999 -999 -999 -99.9 -99.9 -999.9 -9.9 -9.999 -99.9 -99.99 -9.99
2019/11/20 03:06 CST    1.36 -99.99 -999 -999 -999 -99.9 -99.9 -999.9 -9.9 -9.999 -99.9 -99.99 -9.99
2019/11/20 03:12 CST    1.37 -99.99 -999 -999 -999 -99.9 -99.9 -999.9 -9.9 -9.999 -99.9 -99.99 -9.99
2019/11/20 03:18 CST    1.38 -99.99 -999 -999 -999 -99.9 -99.9 -999.9 -9.9 -9.999 -99.9 -99.99 -9.99
2019/11/20 03:24 CST    1.39 -99.99 -999 -999 -999 -99.9 -99.9 -999.9 -9.9 -9.999 -99.9 -99.99 -9.99
2019/11/20 03:30 CST    1.40 -99.99 -999 -999 -999 -99.9 -99.9 -999.9 -9.9 -9.999 -99.9 -99.99 -9.99
2019/11/20 03:36 CST    1.41 -99.99 -999 -999 -999 -99.9 -99.9 -999.9 -9.9 -9.999 -99.9 -99.99 -9.99
2019/11/20 03:42 CST    1.42 -99.99 -999 -999 -999 -99.9 -99.9 -999.9 -9.9 -9.999 -99.9 -99.99 -9.99
2019/11/20 03:48 CST    1.42 -99.99 -999 -999 -999 -99.9 -99.9 -999.9 -9.9 -9.999 -99.9 -99.99 -9.99
2019/11/20 03:54 CST    1.43 -99.99 -999 -999 -999 -99.9 -99.9 -999.9 -9.9 -9.999 -99.9 -99.99 -9.99
2019/11/20 04:00 CST    1.44 -99.99 -999 -999 -999 -99.9 -99.9 -999.9 -9.9 -9.999 -99.9 -99.99 -9.99
2019/11/20 04:06 CST    1.44 -99.99 -999 -999 -999 -99.9 -99.9 -999.9 -9.9 -9.999 -99.9 -99.99 -9.99
2019/11/20 04:12 CST    1.44 -99.99 -999 -999 -999 -99.9 -99.9 -999.9 -9.9 -9.999 -99.9 -99.99 -9.99
2019/11/20 04:18 CST    1.45 -99.99 -999 -999 -999 -99.9 -99.9 -999.9 -9.9 -9.999 -99.9 -99.99 -9.99
2019/11/20 04:24 CST    1.45 -99.99 -999 -999 -999 -99.9 -99.9 -999.9 -9.9 -9.999 -99.9 -99.99 -9.99
2019/11/20 04:30 CST    1.45 -99.99 -999 -999 -999 -99.9 -99.9 -999.9 -9.9 -9.999 -99.9 -99.99 -9.99
2019/11/20 04:36 CST    1.45 -99.99 -999 -999 -999 -99.9 -99.9 -999.9 -9.9 -9.999 -99.9 -99.99 -9.99
2019/11/20 04:42 CST    1.45 -99.99 -999 -999 -999 -99.9 -99.9 -999.9 -9.9 -9.999 -99.9 -99.99 -9.99
2019/11/20 04:48 CST    1.45 -99.99 -999 -999 -999 -99.9 -99.9 -999.9 -9.9 -9.999 -99.9 -99.99 -9.99
2019/11/20 04:54 CST    1.45 -99.99 -999 -999 -999 -99.9 -99.9 -999.9 -9.9 -9.999 -99.9 -99.99 -9.99
2019/11/20 05:00 CST    1.45 -99.99 -999 -999 -999 -99.9 -99.9 -999.9 -9.9 -9.999 -99.9 -99.99 -9.99
2019/11/20 05:06 CST    1.45 -99.99 -999 -999 -999 -99.9 -99.9 -999.9 -9.9 -9.999 -99.9 -99.99 -9.99
2019/11/20 05:12 CST    1.45 -99.99 -999 -999 -999 -99.9 -99.9 -999.9 -9.9 -9.999 -99.9 -99.99 -9.99